DB0RV-13 Weather Reports


Display with metric or nautical units.
time (UTC)temp
F
wind
direction
speed
MPH
gust
MPH
rain 1hr
in
rain 24hr
in
rain mn
in
humidity
%
barometer
mb
20260505102001 56 215 5.0 0.0 0.00 0.00 0.00 77 1008.2
20260505101502 55 202 4.0 0.0 0.00 0.00 0.00 76 1008.1
20260505101002 56 215 5.0 0.0 0.00 0.00 0.00 76 1008.0
20260505100502 57 162 1.0 0.0 0.00 0.00 0.00 77 1008.1
20260505100002 56 244 0.0 0.0 0.00 0.00 0.00 76 1008.1
20260505095501 55 246 1.0 0.0 0.00 0.00 0.00 76 1008.0
20260505095002 55 239 2.0 0.0 0.00 0.00 0.00 76 1008.2
20260505094501 55 241 5.0 0.0 0.00 0.00 0.00 78 1008.1
20260505094002 55 243 1.0 0.0 0.00 0.00 0.00 78 1008.2
20260505093501 55 238 1.0 0.0 0.00 0.00 0.00 79 1008.3
20260505093002 54 269 5.0 0.0 0.00 0.00 0.00 77 1008.3
20260505092502 55 239 3.0 0.0 0.00 0.00 0.00 78 1008.4
20260505092002 55 259 4.0 0.0 0.00 0.00 0.00 78 1008.4
20260505091502 55 262 6.0 0.0 0.00 0.00 0.00 79 1008.3
20260505091001 55 245 3.0 0.0 0.00 0.00 0.00 79 1008.3
20260505090502 55 248 7.0 0.0 0.00 0.00 0.00 78 1008.3
20260505090001 55 244 5.0 0.0 0.00 0.00 0.00 79 1008.4
20260505085502 55 239 5.0 0.0 0.00 0.00 0.00 80 1008.3
20260505085001 54 266 4.0 0.0 0.00 0.00 0.00 79 1008.4
20260505084502 55 244 5.0 0.0 0.00 0.00 0.00 80 1008.4
20260505084001 54 246 5.0 0.0 0.00 0.00 0.00 79 1008.4
20260505083502 55 253 4.0 0.0 0.00 0.00 0.00 79 1008.5
20260505083002 55 241 3.0 0.0 0.00 0.00 0.00 80 1008.4
20260505082502 55 239 2.0 0.0 0.00 0.00 0.00 79 1008.4
20260505082002 55 247 3.0 0.0 0.00 0.00 0.00 81 1008.5
20260505081501 54 239 2.0 0.0 0.00 0.00 0.00 82 1008.4
20260505081002 53 250 5.0 0.0 0.00 0.00 0.00 82 1008.5
20260505080501 53 230 5.0 0.0 0.00 0.00 0.00 82 1008.6
20260505080002 53 251 2.0 0.0 0.00 0.00 0.00 84 1008.6
20260505075501 53 227 3.0 0.0 0.00 0.00 0.00 83 1008.6
20260505075002 53 219 4.0 0.0 0.00 0.00 0.00 84 1008.8
20260505074501 53 240 5.0 0.0 0.00 0.00 0.00 84 1008.7
20260505074001 53 216 5.0 0.0 0.00 0.00 0.00 85 1008.8
20260505073502 53 200 4.0 0.0 0.00 0.00 0.00 85 1008.8
20260505073001 53 239 5.0 0.0 0.00 0.00 0.00 84 1008.8
20260505072502 52 244 3.0 0.0 0.00 0.00 0.00 84 1008.9
20260505072001 53 244 3.0 0.0 0.00 0.00 0.00 85 1008.8
20260505071502 53 242 3.0 0.0 0.00 0.00 0.00 83 1008.9
20260505071001 53 242 2.0 0.0 0.00 0.00 0.00 82 1008.9
20260505070502 53 217 1.0 0.0 0.00 0.00 0.00 81 1008.9
20260505070001 52 349 2.0 0.0 0.00 0.00 0.00 82 1008.9
20260505065501 52 300 1.0 0.0 0.00 0.00 0.00 82 1008.9
20260505065002 51 0 0.0 0.0 0.00 0.00 0.00 83 1008.8
20260505064501 51 126 0.0 0.0 0.00 0.00 0.00 83 1009.0
20260505064002 51 118 0.0 0.0 0.00 0.00 0.00 82 1009.0
20260505063501 51 0 0.0 0.0 0.00 0.00 0.00 83 1009.0
20260505063002 50 0 0.0 0.0 0.00 0.00 0.00 83 1009.0
20260505062501 50 116 2.0 0.0 0.00 0.00 0.00 83 1009.0
20260505062002 50 122 2.0 0.0 0.00 0.00 0.00 83 1008.9
20260505061501 50 134 1.0 0.0 0.00 0.00 0.00 84 1009.0
20260505061001 49 152 2.0 0.0 0.00 0.00 0.00 83 1009.1
20260505060501 49 134 3.0 0.0 0.00 0.00 0.00 83 1009.0
20260505060001 50 132 1.0 0.0 0.00 0.00 0.00 83 1009.1
20260505055502 50 131 2.0 0.0 0.00 0.00 0.00 82 1009.2
20260505055001 50 114 1.0 0.0 0.00 0.00 0.00 83 1009.1
20260505054502 49 194 1.0 0.0 0.00 0.00 0.00 84 1009.2
20260505054001 48 160 1.0 0.0 0.00 0.00 0.00 85 1009.1
20260505053502 48 101 1.0 0.0 0.00 0.00 0.00 85 1009.1
20260505053001 48 67 1.0 0.0 0.00 0.00 0.00 86 1009.2
20260505052501 47 357 0.0 0.0 0.00 0.00 0.00 87 1009.1
20260505052001 47 26 0.0 0.0 0.00 0.00 0.00 88 1009.1
20260505051501 46 0 0.0 0.0 0.00 0.00 0.00 88 1009.1
20260505051002 46 62 1.0 0.0 0.00 0.00 0.00 88 1009.0
20260505050501 46 82 1.0 0.0 0.00 0.00 0.00 88 1009.1
20260505041502 45 36 1.0 0.0 0.00 0.00 0.00 92 1009.2
20260505041001 45 23 3.0 0.0 0.00 0.00 0.00 92 1009.2
20260505040502 45 336 2.0 0.0 0.00 0.00 0.00 91 1009.2
20260505040001 45 323 3.0 0.0 0.00 0.00 0.00 91 1009.3
20260505035502 45 327 3.0 0.0 0.00 0.00 0.00 91 1009.2
20260505035001 46 318 1.0 0.0 0.00 0.00 0.00 91 1009.3
20260505034501 45 295 1.0 0.0 0.00 0.00 0.00 89 1009.3
20260505034002 46 355 2.0 0.0 0.00 0.00 0.00 89 1009.3
20260505033502 47 54 1.0 0.0 0.00 0.00 0.00 89 1009.4
20260505033002 47 52 2.0 0.0 0.00 0.00 0.00 89 1009.3
20260505032501 47 0 0.0 0.0 0.00 0.00 0.00 88 1009.5
20260505032002 48 26 1.0 0.0 0.00 0.00 0.00 89 1009.4
20260505031502 47 0 0.0 0.0 0.00 0.00 0.00 90 1009.5
20260505031001 46 313 3.0 0.0 0.00 0.00 0.00 88 1009.5
20260505030502 46 314 2.0 0.0 0.00 0.00 0.00 88 1009.6
20260505030002 48 339 2.0 0.0 0.00 0.00 0.00 88 1009.7
20260505025501 48 42 2.0 0.0 0.00 0.00 0.00 87 1009.7
20260505025002 47 0 0.0 0.0 0.00 0.00 0.00 88 1009.8
20260505024502 48 13 2.0 0.0 0.00 0.00 0.00 88 1009.8
20260505024001 48 54 0.0 0.0 0.00 0.00 0.00 87 1009.9
20260505023502 48 148 0.0 0.0 0.00 0.00 0.00 88 1010.0
20260505023002 48 146 1.0 0.0 0.00 0.00 0.00 87 1009.9
20260505022501 48 130 1.0 0.0 0.00 0.00 0.00 87 1010.0
20260505022002 48 107 1.0 0.0 0.00 0.00 0.00 87 1010.0
20260505021502 48 29 1.0 0.0 0.00 0.00 0.00 87 1010.0
20260505021001 48 71 1.0 0.0 0.00 0.00 0.00 88 1010.0
20260505020502 48 62 3.0 0.0 0.00 0.00 0.00 88 1010.0
20260505020002 48 33 2.0 0.0 0.00 0.00 0.00 89 1010.0
20260505015501 48 345 4.0 0.0 0.00 0.00 0.00 87 1010.0
20260505015002 48 355 2.0 0.0 0.00 0.00 0.00 87 1010.0
20260505014502 47 331 2.0 0.0 0.00 0.00 0.00 85 1010.2
20260505014001 48 320 1.0 0.0 0.00 0.00 0.00 86 1010.1
20260505013502 48 331 2.0 0.0 0.00 0.00 0.00 85 1010.2
20260505013002 48 335 2.0 0.0 0.00 0.00 0.00 85 1010.4
20260505012501 48 303 1.0 0.0 0.00 0.00 0.00 83 1010.5
20260505012002 48 40 2.0 0.0 0.00 0.00 0.00 83 1010.4
20260505011502 48 60 1.0 0.0 0.00 0.00 0.00 84 1010.5
20260505011001 48 306 0.0 0.0 0.00 0.00 0.00 83 1010.6
20260505010502 48 75 3.0 0.0 0.00 0.00 0.00 84 1010.6
20260505010003 49 131 2.0 0.0 0.00 0.00 0.00 83 1010.6
20260505005501 50 71 2.0 0.0 0.00 0.00 0.00 85 1010.7
20260505005002 51 72 3.0 0.0 0.00 0.00 0.00 85 1010.6
20260505004502 51 0 0.0 0.0 0.00 0.00 0.00 87 1010.8
20260505004001 50 294 2.0 0.0 0.00 0.00 0.00 85 1011.0
20260505003502 50 344 2.0 0.0 0.00 0.00 0.00 85 1010.9
20260505003002 49 321 2.0 0.0 0.00 0.00 0.00 84 1011.1
20260505002501 50 340 3.0 0.0 0.00 0.00 0.00 83 1010.9
20260505002002 50 309 2.0 0.0 0.00 0.00 0.00 86 1011.0
20260505001502 50 297 2.0 0.0 0.00 0.00 0.00 84 1011.0
20260505001001 50 340 2.0 0.0 0.00 0.00 0.00 81 1011.0
20260505000502 51 19 3.0 0.0 0.00 0.00 0.00 81 1011.0
20260505000002 50 22 2.0 0.0 0.00 0.00 0.00 82 1010.9
20260504235501 51 135 0.0 0.0 0.00 0.00 0.00 84 1011.0
20260504235002 51 190 1.0 0.0 0.00 0.00 0.00 84 1011.0
20260504234502 52 123 2.0 0.0 0.00 0.00 0.00 84 1011.0
20260504234001 52 0 0.0 0.0 0.00 0.00 0.00 84 1011.0
20260504233502 52 103 2.0 0.0 0.00 0.00 0.00 84 1011.0
20260504233002 52 223 2.0 0.0 0.00 0.00 0.00 84 1011.0
20260504232501 52 156 0.0 0.0 0.00 0.00 0.00 84 1011.2
20260504232002 52 237 1.0 0.0 0.00 0.00 0.00 84 1011.3
20260504231502 52 201 1.0 0.0 0.00 0.00 0.00 83 1011.3
20260504231001 52 196 0.0 0.0 0.00 0.00 0.00 83 1011.2
20260504230502 52 222 1.0 0.0 0.00 0.00 0.00 83 1011.2
20260504230002 51 221 1.0 0.0 0.00 0.00 0.00 82 1011.3
20260504225501 52 244 2.0 0.0 0.00 0.00 0.00 83 1011.4
20260504225002 52 240 2.0 0.0 0.00 0.00 0.00 82 1011.4
20260504224502 52 222 2.0 0.0 0.00 0.00 0.00 82 1011.5
20260504224001 52 220 2.0 0.0 0.00 0.00 0.00 81 1011.5
20260504223502 53 217 5.0 0.0 0.00 0.00 0.00 81 1011.6
20260504223002 53 213 4.0 0.0 0.00 0.00 0.00 80 1011.6
20260504222501 53 213 5.0 0.0 0.00 0.00 0.00 80 1011.6
20260504222002 53 238 4.0 0.0 0.00 0.00 0.00 79 1011.6
20260504221502 53 238 4.0 0.0 0.00 0.00 0.00 79 1011.5
20260504221001 53 216 6.0 0.0 0.00 0.00 0.00 78 1011.6
20260504220502 54 216 5.0 0.0 0.00 0.00 0.00 77 1011.5
20260504220002 54 212 5.0 0.0 0.00 0.00 0.00 75 1011.7
20260504215501 54 219 4.0 0.0 0.00 0.00 0.00 75 1011.5
20260504215002 54 221 6.0 0.0 0.00 0.00 0.00 74 1011.7
20260504214502 54 242 3.0 0.0 0.00 0.00 0.00 73 1011.5
20260504214001 54 229 4.0 0.0 0.00 0.00 0.00 73 1011.6
20260504213501 55 226 4.0 0.0 0.00 0.00 0.00 72 1011.5
20260504213002 55 223 2.0 0.0 0.00 0.00 0.00 71 1011.6
20260504212501 55 206 6.0 0.0 0.00 0.00 0.00 70 1011.6
20260504212001 55 208 4.0 0.0 0.00 0.00 0.00 69 1011.7
20260504211502 55 232 4.0 0.0 0.00 0.00 0.00 68 1011.7
20260504211001 55 218 5.0 0.0 0.00 0.00 0.00 66 1011.7
20260504210502 56 208 6.0 0.0 0.00 0.00 0.00 61 1011.6
20260504210003 58 210 4.0 0.0 0.00 0.00 0.00 57 1011.8
20260504205501 58 297 1.0 0.0 0.00 0.00 0.00 54 1011.6
20260504205001 60 202 4.0 0.0 0.00 0.00 0.00 50 1011.6
20260504204505 59 249 2.0 0.0 0.00 0.00 0.00 51 1011.7
20260504204001 61 284 2.0 0.0 0.00 0.00 0.00 48 1011.7
20260504203502 59 254 2.0 0.0 0.00 0.00 0.00 50 1011.6
20260504203002 61 284 1.0 0.0 0.00 0.00 0.00 48 1011.6
20260504202501 59 316 2.0 0.0 0.00 0.00 0.00 52 1011.6
20260504202002 61 308 1.0 0.0 0.00 0.00 0.00 48 1011.5
20260504201502 61 320 1.0 0.0 0.00 0.00 0.00 47 1011.5
20260504201001 62 208 1.0 0.0 0.00 0.00 0.00 46 1011.4
20260504200502 62 32 2.0 0.0 0.00 0.00 0.00 45 1011.3
20260504200002 62 88 2.0 0.0 0.00 0.00 0.00 45 1011.4
20260504195501 62 97 3.0 0.0 0.00 0.00 0.00 45 1011.4
20260504195001 63 131 2.0 0.0 0.00 0.00 0.00 44 1011.4
20260504194502 64 32 3.0 0.0 0.00 0.00 0.00 43 1011.3
20260504194001 63 338 2.0 0.0 0.00 0.00 0.00 44 1011.2
20260504193501 63 10 4.0 0.0 0.00 0.00 0.00 43 1011.2
20260504193002 64 1 3.0 0.0 0.00 0.00 0.00 43 1011.0
20260504192501 63 26 4.0 0.0 0.00 0.00 0.00 44 1011.1
20260504192002 63 43 4.0 0.0 0.00 0.00 0.00 43 1011.0
20260504191502 64 79 3.0 0.0 0.00 0.00 0.00 43 1011.0
20260504191001 64 72 4.0 0.0 0.00 0.00 0.00 42 1011.0
20260504190502 64 68 4.0 0.0 0.00 0.00 0.00 42 1011.0
20260504190001 64 67 3.0 0.0 0.00 0.00 0.00 42 1011.0
20260504185502 64 42 2.0 0.0 0.00 0.00 0.00 42 1011.1
20260504185001 64 78 2.0 0.0 0.00 0.00 0.00 42 1011.2
20260504184501 64 0 0.0 0.0 0.00 0.00 0.00 43 1011.2
20260504184002 64 90 1.0 0.0 0.00 0.00 0.00 42 1011.3
20260504183502 64 0 0.0 0.0 0.00 0.00 0.00 42 1011.4
20260504183002 64 258 1.0 0.0 0.00 0.00 0.00 41 1011.4
20260504182501 64 0 0.0 0.0 0.00 0.00 0.00 42 1011.4
20260504182002 64 299 1.0 0.0 0.00 0.00 0.00 41 1011.4
20260504181501 65 315 3.0 0.0 0.00 0.00 0.00 41 1011.4
20260504181002 64 256 4.0 0.0 0.00 0.00 0.00 42 1011.5
20260504180501 65 263 2.0 0.0 0.00 0.00 0.00 40 1011.3
20260504180003 65 264 2.0 0.0 0.00 0.00 0.00 40 1011.3
20260504175503 65 269 4.0 0.0 0.00 0.00 0.00 39 1011.2
20260504175001 65 270 5.0 0.0 0.00 0.00 0.00 39 1011.4
20260504174502 65 258 2.0 0.0 0.00 0.00 0.00 40 1011.4
20260504174001 66 272 0.0 0.0 0.00 0.00 0.00 40 1011.3
20260504173502 66 288 5.0 0.0 0.00 0.00 0.00 40 1011.2
20260504173002 66 292 6.0 0.0 0.00 0.00 0.00 40 1011.2
20260504172502 67 285 4.0 0.0 0.00 0.00 0.00 41 1011.2
20260504172001 66 260 4.0 0.0 0.00 0.00 0.00 42 1011.2
20260504171502 66 243 6.0 0.0 0.00 0.00 0.00 45 1011.3
20260504171003 67 227 3.0 0.0 0.00 0.00 0.00 44 1011.1
20260504170501 67 334 4.0 0.0 0.00 0.00 0.00 43 1011.1
20260504151002 70 269 3.0 0.0 0.00 0.00 0.00 32 1011.0
20260504150501 70 241 2.0 0.0 0.00 0.00 0.00 35 1010.8
20260504141002 70 246 2.0 0.0 0.00 0.00 0.00 35 1011.1
20260504140501 69 245 3.0 0.0 0.00 0.00 0.00 33 1011.1
20260504130502 70 20 7.0 0.0 0.00 0.00 0.00 36 1011.4
20260504110503 68 20 6.0 0.0 0.00 0.00 0.00 41 1012.6